Year,Month,Day,Hour,Minute,Value (Times are PST for temperature in C)
2018,06,16,00,00,12.80
2018,06,16,00,01,12.80
2018,06,16,00,02,12.70
2018,06,16,00,03,12.70
2018,06,16,00,04,12.70
2018,06,16,00,05,12.70
2018,06,16,00,06,12.70
2018,06,16,00,07,12.70
2018,06,16,00,08,12.70
2018,06,16,00,09,12.70
2018,06,16,00,10,12.70
2018,06,16,00,11,12.70
2018,06,16,00,12,12.70
2018,06,16,00,13,12.70
2018,06,16,00,14,12.60
2018,06,16,00,15,12.60
2018,06,16,00,16,12.60
2018,06,16,00,17,12.60
2018,06,16,00,18,12.60
2018,06,16,00,19,12.60
2018,06,16,00,20,12.60
2018,06,16,00,21,12.60
2018,06,16,00,22,12.60
2018,06,16,00,23,12.60
2018,06,16,00,24,12.50
2018,06,16,00,25,12.50
2018,06,16,00,26,12.50
2018,06,16,00,27,12.50
2018,06,16,00,28,12.50
2018,06,16,00,29,12.50
2018,06,16,00,30,12.50
2018,06,16,00,31,12.50
2018,06,16,00,32,12.50
2018,06,16,00,33,12.50
2018,06,16,00,34,12.50
2018,06,16,00,35,12.50
2018,06,16,00,36,12.50
2018,06,16,00,37,12.50
2018,06,16,00,38,12.50
2018,06,16,00,39,12.50
2018,06,16,00,40,12.50
2018,06,16,00,41,12.50
2018,06,16,00,42,12.50
2018,06,16,00,43,12.50
2018,06,16,00,44,12.50
2018,06,16,00,45,12.50
2018,06,16,00,46,12.50
2018,06,16,00,47,12.50
2018,06,16,00,48,12.50
2018,06,16,00,49,12.50
2018,06,16,00,50,12.40
2018,06,16,00,51,12.40
2018,06,16,00,52,12.40
2018,06,16,00,53,12.40
2018,06,16,00,54,12.50
2018,06,16,00,55,12.50
2018,06,16,00,56,12.50
2018,06,16,00,57,12.50
2018,06,16,00,58,12.50
2018,06,16,00,59,12.50
2018,06,16,01,00,12.50
2018,06,16,01,01,12.50
2018,06,16,01,02,12.50
2018,06,16,01,03,12.50
2018,06,16,01,04,12.50
2018,06,16,01,05,12.50
2018,06,16,01,06,12.50
2018,06,16,01,07,12.50
2018,06,16,01,08,12.50
2018,06,16,01,09,12.50
2018,06,16,01,10,12.40
2018,06,16,01,11,12.40
2018,06,16,01,12,12.40
2018,06,16,01,13,12.40
2018,06,16,01,14,12.40
2018,06,16,01,15,12.40
2018,06,16,01,16,12.40
2018,06,16,01,17,12.40
2018,06,16,01,18,12.30
2018,06,16,01,19,12.30
2018,06,16,01,20,12.30
2018,06,16,01,21,12.30
2018,06,16,01,22,12.30
2018,06,16,01,23,12.30
2018,06,16,01,24,12.30
2018,06,16,01,25,12.30
2018,06,16,01,26,12.30
2018,06,16,01,27,12.30
2018,06,16,01,28,12.30
2018,06,16,01,29,12.30
2018,06,16,01,30,12.30
2018,06,16,01,31,12.30
2018,06,16,01,32,12.30
2018,06,16,01,33,12.30
2018,06,16,01,34,12.30
2018,06,16,01,35,12.30
2018,06,16,01,36,12.30
2018,06,16,01,37,12.30
2018,06,16,01,38,12.20
2018,06,16,01,39,12.20
2018,06,16,01,40,12.20
2018,06,16,01,41,12.20
2018,06,16,01,42,12.20
2018,06,16,01,43,12.20
2018,06,16,01,44,12.20
2018,06,16,01,45,12.10
2018,06,16,01,46,12.10
2018,06,16,01,47,12.10
2018,06,16,01,48,12.10
2018,06,16,01,49,12.10
2018,06,16,01,50,12.10
2018,06,16,01,51,12.10
2018,06,16,01,52,12.00
2018,06,16,01,53,12.00
2018,06,16,01,54,12.00
2018,06,16,01,55,12.00
2018,06,16,01,56,12.00
2018,06,16,01,57,12.00
2018,06,16,01,58,11.90
2018,06,16,01,59,11.90
2018,06,16,02,00,11.90
2018,06,16,02,01,11.90
2018,06,16,02,02,11.90
2018,06,16,02,03,11.90
2018,06,16,02,04,11.80
2018,06,16,02,05,11.80
2018,06,16,02,06,11.80
2018,06,16,02,07,11.80
2018,06,16,02,08,11.80
2018,06,16,02,09,11.80
2018,06,16,02,10,11.80
2018,06,16,02,11,11.80
2018,06,16,02,12,11.80
2018,06,16,02,13,11.70
2018,06,16,02,14,11.70
2018,06,16,02,15,11.70
2018,06,16,02,16,11.70
2018,06,16,02,17,11.60
2018,06,16,02,18,11.60
2018,06,16,02,19,11.60
2018,06,16,02,20,11.60
2018,06,16,02,21,11.60
2018,06,16,02,22,11.60
2018,06,16,02,23,11.60
2018,06,16,02,24,11.60
2018,06,16,02,25,11.60
2018,06,16,02,26,11.60
2018,06,16,02,27,11.60
2018,06,16,02,28,11.60
2018,06,16,02,29,11.60
2018,06,16,02,30,11.70
2018,06,16,02,31,11.70
2018,06,16,02,32,11.70
2018,06,16,02,33,11.70
2018,06,16,02,34,11.70
2018,06,16,02,35,11.70
2018,06,16,02,36,11.70
2018,06,16,02,37,11.70
2018,06,16,02,38,11.70
2018,06,16,02,39,11.70
2018,06,16,02,40,11.80
2018,06,16,02,41,11.80
2018,06,16,02,42,11.80
2018,06,16,02,43,11.80
2018,06,16,02,44,11.80
2018,06,16,02,45,11.80
2018,06,16,02,46,11.80
2018,06,16,02,47,11.80
2018,06,16,02,48,11.80
2018,06,16,02,49,11.80
2018,06,16,02,50,11.80
2018,06,16,02,51,11.80
2018,06,16,02,52,11.80
2018,06,16,02,53,11.80
2018,06,16,02,54,11.80
2018,06,16,02,55,11.80
2018,06,16,02,56,11.80
2018,06,16,02,57,11.80
2018,06,16,02,58,11.80
2018,06,16,02,59,11.80
2018,06,16,03,00,11.80
2018,06,16,03,01,11.80
2018,06,16,03,02,11.80
2018,06,16,03,03,11.80
2018,06,16,03,04,11.80
2018,06,16,03,05,11.80
2018,06,16,03,06,11.80
2018,06,16,03,07,11.80
2018,06,16,03,08,11.80
2018,06,16,03,09,11.80
2018,06,16,03,10,11.80
2018,06,16,03,11,11.80
2018,06,16,03,12,11.80
2018,06,16,03,13,11.80
2018,06,16,03,14,11.80
2018,06,16,03,15,11.80
2018,06,16,03,16,11.80
2018,06,16,03,17,11.80
2018,06,16,03,18,11.80
2018,06,16,03,19,11.80
2018,06,16,03,20,11.80
2018,06,16,03,21,11.80
2018,06,16,03,22,11.80
2018,06,16,03,23,11.80
2018,06,16,03,24,11.80
2018,06,16,03,25,11.80
2018,06,16,03,26,11.80
2018,06,16,03,27,11.80
2018,06,16,03,28,11.80
2018,06,16,03,29,11.80
2018,06,16,03,30,11.80
2018,06,16,03,31,11.80
2018,06,16,03,32,11.80
2018,06,16,03,33,11.80
2018,06,16,03,34,11.80
2018,06,16,03,35,11.80
2018,06,16,03,36,11.80
2018,06,16,03,37,11.80
2018,06,16,03,38,11.70
2018,06,16,03,39,11.70
2018,06,16,03,40,11.70
2018,06,16,03,41,11.70
2018,06,16,03,42,11.60
2018,06,16,03,43,11.60
2018,06,16,03,44,11.60
2018,06,16,03,45,11.60
2018,06,16,03,46,11.60
2018,06,16,03,47,11.60
2018,06,16,03,48,11.60
2018,06,16,03,49,11.60
2018,06,16,03,50,11.60
2018,06,16,03,51,11.60
2018,06,16,03,52,11.60
2018,06,16,03,53,11.60
2018,06,16,03,54,11.60
2018,06,16,03,55,11.60
2018,06,16,03,56,11.60
2018,06,16,03,57,11.60
2018,06,16,03,58,11.60
2018,06,16,03,59,11.50
2018,06,16,04,00,11.40
2018,06,16,04,01,11.40
2018,06,16,04,02,11.40
2018,06,16,04,03,11.40
2018,06,16,04,04,11.40
2018,06,16,04,05,11.40
2018,06,16,04,06,11.40
2018,06,16,04,07,11.40
2018,06,16,04,08,11.40
2018,06,16,04,09,11.40
2018,06,16,04,10,11.40
2018,06,16,04,11,11.40
2018,06,16,04,12,11.40
2018,06,16,04,13,11.40
2018,06,16,04,14,11.40
2018,06,16,04,15,11.30
2018,06,16,04,16,11.30
2018,06,16,04,17,11.30
2018,06,16,04,18,11.30
2018,06,16,04,19,11.30
2018,06,16,04,20,11.30
2018,06,16,04,21,11.40
2018,06,16,04,22,11.40
2018,06,16,04,23,11.40
2018,06,16,04,24,11.40
2018,06,16,04,25,11.40
2018,06,16,04,26,11.40
2018,06,16,04,27,11.40
2018,06,16,04,28,11.40
2018,06,16,04,29,11.40
2018,06,16,04,30,11.40
2018,06,16,04,31,11.40
2018,06,16,04,32,11.40
2018,06,16,04,33,11.30
2018,06,16,04,34,11.30
2018,06,16,04,35,11.30
2018,06,16,04,36,11.30
2018,06,16,04,37,11.30
2018,06,16,04,38,11.30
2018,06,16,04,39,11.30
2018,06,16,04,40,11.30
2018,06,16,04,41,11.20
2018,06,16,04,42,11.20
2018,06,16,04,43,11.20
2018,06,16,04,44,11.20
2018,06,16,04,45,11.20
2018,06,16,04,46,11.20
2018,06,16,04,47,11.20
2018,06,16,04,48,11.10
2018,06,16,04,49,11.10
2018,06,16,04,50,11.10
2018,06,16,04,51,11.10
2018,06,16,04,52,11.10
2018,06,16,04,53,11.10
2018,06,16,04,54,10.90
2018,06,16,04,55,10.90
2018,06,16,04,56,10.90
2018,06,16,04,57,10.90
2018,06,16,04,58,10.90
2018,06,16,04,59,10.90
2018,06,16,05,00,10.90
2018,06,16,05,01,10.90
2018,06,16,05,02,10.90
2018,06,16,05,03,10.90
2018,06,16,05,04,10.90
2018,06,16,05,05,10.90
2018,06,16,05,06,10.90
2018,06,16,05,07,10.90
2018,06,16,05,08,10.90
2018,06,16,05,09,10.80
2018,06,16,05,10,10.80
2018,06,16,05,11,10.80
2018,06,16,05,12,10.80
2018,06,16,05,13,10.70
2018,06,16,05,14,10.70
2018,06,16,05,15,10.70
2018,06,16,05,16,10.70
2018,06,16,05,17,10.70
2018,06,16,05,18,10.60
2018,06,16,05,19,10.60
2018,06,16,05,20,10.60
2018,06,16,05,21,10.60
2018,06,16,05,22,10.60
2018,06,16,05,23,10.60
2018,06,16,05,24,10.60
2018,06,16,05,25,10.60
2018,06,16,05,26,10.50
2018,06,16,05,27,10.40
2018,06,16,05,28,10.40
2018,06,16,05,29,10.40
2018,06,16,05,30,10.40
2018,06,16,05,31,10.40
2018,06,16,05,32,10.40
2018,06,16,05,33,10.40
2018,06,16,05,34,10.60
2018,06,16,05,35,10.60
2018,06,16,05,36,10.60
2018,06,16,05,37,10.60
2018,06,16,05,38,10.50
2018,06,16,05,39,10.40
2018,06,16,05,40,10.40
2018,06,16,05,41,10.40
2018,06,16,05,42,10.60
2018,06,16,05,43,10.60
2018,06,16,05,44,10.60
2018,06,16,05,45,10.60
2018,06,16,05,46,10.60
2018,06,16,05,47,10.60
2018,06,16,05,48,10.60
2018,06,16,05,49,10.60
2018,06,16,05,50,10.60
2018,06,16,05,51,10.60
2018,06,16,05,52,10.60
2018,06,16,05,53,10.60
2018,06,16,05,54,10.60
2018,06,16,05,55,10.60
2018,06,16,05,56,10.60
2018,06,16,05,57,10.60
2018,06,16,05,58,10.60
2018,06,16,05,59,10.70
2018,06,16,06,00,10.70
2018,06,16,06,01,10.70
2018,06,16,06,02,10.80
2018,06,16,06,03,10.80
2018,06,16,06,04,10.90
2018,06,16,06,05,10.90
2018,06,16,06,06,10.90
2018,06,16,06,07,10.90
2018,06,16,06,08,11.00
2018,06,16,06,09,11.10
2018,06,16,06,10,11.10
2018,06,16,06,11,11.10
2018,06,16,06,12,11.20
2018,06,16,06,13,11.20
2018,06,16,06,14,11.30
2018,06,16,06,15,11.40
2018,06,16,06,16,11.40
2018,06,16,06,17,11.40
2018,06,16,06,18,11.50
2018,06,16,06,19,11.60
2018,06,16,06,20,11.60
2018,06,16,06,21,11.60
2018,06,16,06,22,11.60
2018,06,16,06,23,11.70
2018,06,16,06,24,11.70
2018,06,16,06,25,11.80
2018,06,16,06,26,11.80
2018,06,16,06,27,11.90
2018,06,16,06,28,11.90
2018,06,16,06,29,12.00
2018,06,16,06,30,12.10
2018,06,16,06,31,12.10
2018,06,16,06,32,12.20
2018,06,16,06,33,12.20
2018,06,16,06,34,12.30
2018,06,16,06,35,12.30
2018,06,16,06,36,12.30
2018,06,16,06,37,12.40
2018,06,16,06,38,12.40
2018,06,16,06,39,12.50
2018,06,16,06,40,12.50
2018,06,16,06,41,12.50
2018,06,16,06,42,12.60
2018,06,16,06,43,12.60
2018,06,16,06,44,12.70
2018,06,16,06,45,12.80
2018,06,16,06,46,12.80
2018,06,16,06,47,12.80
2018,06,16,06,48,12.90
2018,06,16,06,49,13.00
2018,06,16,06,50,13.00
2018,06,16,06,51,13.10
2018,06,16,06,52,13.10
2018,06,16,06,53,13.20
2018,06,16,06,54,13.30
2018,06,16,06,55,13.30
2018,06,16,06,56,13.30
2018,06,16,06,57,13.40
2018,06,16,06,58,13.50
2018,06,16,06,59,13.50
2018,06,16,07,00,13.60
2018,06,16,07,01,13.70
2018,06,16,07,02,13.70
2018,06,16,07,03,13.80
2018,06,16,07,04,13.80
2018,06,16,07,05,13.90
2018,06,16,07,06,13.90
2018,06,16,07,07,14.00
2018,06,16,07,08,14.00
2018,06,16,07,09,14.10
2018,06,16,07,10,14.10
2018,06,16,07,11,14.20
2018,06,16,07,12,14.20
2018,06,16,07,13,14.20
2018,06,16,07,14,14.20
2018,06,16,07,15,14.20
2018,06,16,07,16,14.30
2018,06,16,07,17,14.30
2018,06,16,07,18,14.30
2018,06,16,07,19,14.40
2018,06,16,07,20,14.40
2018,06,16,07,21,14.50
2018,06,16,07,22,14.50
2018,06,16,07,23,14.50
2018,06,16,07,24,14.50
2018,06,16,07,25,14.50
2018,06,16,07,26,14.50
2018,06,16,07,27,14.60
2018,06,16,07,28,14.60
2018,06,16,07,29,14.60
2018,06,16,07,30,14.70
2018,06,16,07,31,14.70
2018,06,16,07,32,14.70
2018,06,16,07,33,14.70
2018,06,16,07,34,14.80
2018,06,16,07,35,14.80
2018,06,16,07,36,14.80
2018,06,16,07,37,14.80
2018,06,16,07,38,14.80
2018,06,16,07,39,14.90
2018,06,16,07,40,14.90
2018,06,16,07,41,15.00
2018,06,16,07,42,15.00
2018,06,16,07,43,15.10
2018,06,16,07,44,15.10
2018,06,16,07,45,15.10
2018,06,16,07,46,15.20
2018,06,16,07,47,15.20
2018,06,16,07,48,15.20
2018,06,16,07,49,15.20
2018,06,16,07,50,15.30
2018,06,16,07,51,15.30
2018,06,16,07,52,15.40
2018,06,16,07,53,15.40
2018,06,16,07,54,15.50
2018,06,16,07,55,15.50
2018,06,16,07,56,15.50
2018,06,16,07,57,15.60
2018,06,16,07,58,15.60
2018,06,16,07,59,15.60
2018,06,16,08,00,15.60
2018,06,16,08,01,15.60
2018,06,16,08,02,15.60
2018,06,16,08,03,15.60
2018,06,16,08,04,15.60
2018,06,16,08,05,15.50
2018,06,16,08,06,15.50
2018,06,16,08,07,15.50
2018,06,16,08,08,15.50
2018,06,16,08,09,15.50
2018,06,16,08,10,15.60
2018,06,16,08,11,15.60
2018,06,16,08,12,15.60
2018,06,16,08,13,15.70
2018,06,16,08,14,15.70
2018,06,16,08,15,15.70
2018,06,16,08,16,15.80
2018,06,16,08,17,15.80
2018,06,16,08,18,15.80
2018,06,16,08,19,15.90
2018,06,16,08,20,15.90
2018,06,16,08,21,15.90
2018,06,16,08,22,16.00
2018,06,16,08,23,16.10
2018,06,16,08,24,16.10
2018,06,16,08,25,16.10
2018,06,16,08,26,16.20
2018,06,16,08,27,16.20
2018,06,16,08,28,16.30
2018,06,16,08,29,16.30
2018,06,16,08,30,16.30
2018,06,16,08,31,16.30
2018,06,16,08,32,16.30
2018,06,16,08,33,16.30
2018,06,16,08,34,16.30
2018,06,16,08,35,16.30
2018,06,16,08,36,16.40
2018,06,16,08,37,16.40
2018,06,16,08,38,16.40
2018,06,16,08,39,16.40
2018,06,16,08,40,16.40
2018,06,16,08,41,16.60
2018,06,16,08,42,16.60
2018,06,16,08,43,16.70
2018,06,16,08,44,16.70
2018,06,16,08,45,16.70
2018,06,16,08,46,16.80
2018,06,16,08,47,16.80
2018,06,16,08,48,16.90
2018,06,16,08,49,16.90
2018,06,16,08,50,17.00
2018,06,16,08,51,17.00
2018,06,16,08,52,17.10
2018,06,16,08,53,17.10
2018,06,16,08,54,17.30
2018,06,16,08,55,17.40
2018,06,16,08,56,17.40
2018,06,16,08,57,17.50
2018,06,16,08,58,17.60
2018,06,16,08,59,17.60
2018,06,16,09,00,17.60
2018,06,16,09,01,17.60
2018,06,16,09,02,17.70
2018,06,16,09,03,17.70
2018,06,16,09,04,17.70
2018,06,16,09,05,17.80
2018,06,16,09,06,17.80
2018,06,16,09,07,17.90
2018,06,16,09,08,17.90
2018,06,16,09,09,17.90
2018,06,16,09,10,17.90
2018,06,16,09,11,17.90
2018,06,16,09,12,17.80
2018,06,16,09,13,17.80
2018,06,16,09,14,17.80
2018,06,16,09,15,17.80
2018,06,16,09,16,17.80
2018,06,16,09,17,17.80
2018,06,16,09,18,17.90
2018,06,16,09,19,17.90
2018,06,16,09,20,17.90
2018,06,16,09,21,17.90
2018,06,16,09,22,17.90
2018,06,16,09,23,17.90
2018,06,16,09,24,17.90
2018,06,16,09,25,17.90
2018,06,16,09,26,17.90
2018,06,16,09,27,18.00
2018,06,16,09,28,18.10
2018,06,16,09,29,18.10
2018,06,16,09,30,18.20
2018,06,16,09,31,18.20
2018,06,16,09,32,18.30
2018,06,16,09,33,18.30
2018,06,16,09,34,18.40
2018,06,16,09,35,18.50
2018,06,16,09,36,18.60
2018,06,16,09,37,18.60
2018,06,16,09,38,18.60
2018,06,16,09,39,18.60
2018,06,16,09,40,18.60
2018,06,16,09,41,18.70
2018,06,16,09,42,18.80
2018,06,16,09,43,18.80
2018,06,16,09,44,18.80
2018,06,16,09,45,18.80
2018,06,16,09,46,18.70
2018,06,16,09,47,18.70
2018,06,16,09,48,18.70
2018,06,16,09,49,18.70
2018,06,16,09,50,18.70
2018,06,16,09,51,18.70
2018,06,16,09,52,18.70
2018,06,16,09,53,18.70
2018,06,16,09,54,18.70
2018,06,16,09,55,18.70
2018,06,16,09,56,18.80
2018,06,16,09,57,18.80
2018,06,16,09,58,18.80
2018,06,16,09,59,18.90
2018,06,16,10,00,18.90
2018,06,16,10,01,18.90
2018,06,16,10,02,18.90
2018,06,16,10,03,18.90
2018,06,16,10,04,18.90
2018,06,16,10,05,19.10
2018,06,16,10,06,19.10
2018,06,16,10,07,19.20
2018,06,16,10,08,19.20
2018,06,16,10,09,19.20
2018,06,16,10,10,19.30
2018,06,16,10,11,19.40
2018,06,16,10,12,19.40
2018,06,16,10,13,19.50
2018,06,16,10,14,19.40
2018,06,16,10,15,19.30
2018,06,16,10,16,19.30
2018,06,16,10,17,19.30
2018,06,16,10,18,19.40
2018,06,16,10,19,19.40
2018,06,16,10,20,19.50
2018,06,16,10,21,19.60
2018,06,16,10,22,19.70
2018,06,16,10,23,19.80
2018,06,16,10,24,19.90
2018,06,16,10,25,19.90
2018,06,16,10,26,19.90
2018,06,16,10,27,19.90
2018,06,16,10,28,19.90
2018,06,16,10,29,19.90
2018,06,16,10,30,19.90
2018,06,16,10,31,19.90
2018,06,16,10,32,19.90
2018,06,16,10,33,20.00
2018,06,16,10,34,20.10
2018,06,16,10,35,20.10
2018,06,16,10,36,20.20
2018,06,16,10,37,20.30
2018,06,16,10,38,20.40
2018,06,16,10,39,20.40
2018,06,16,10,40,20.50
2018,06,16,10,41,20.60
2018,06,16,10,42,20.60
2018,06,16,10,43,20.60
2018,06,16,10,44,20.70
2018,06,16,10,45,20.70
2018,06,16,10,46,20.70
2018,06,16,10,47,20.50
2018,06,16,10,48,20.40
2018,06,16,10,49,20.30
2018,06,16,10,50,20.30
2018,06,16,10,51,20.30
2018,06,16,10,52,20.30
2018,06,16,10,53,20.30
2018,06,16,10,54,20.30
2018,06,16,10,55,20.30
2018,06,16,10,56,20.40
2018,06,16,10,57,20.40
2018,06,16,10,58,20.50
2018,06,16,10,59,20.50
2018,06,16,11,00,20.60
2018,06,16,11,01,20.60
2018,06,16,11,02,20.60
2018,06,16,11,03,20.60
2018,06,16,11,04,20.70
2018,06,16,11,05,20.80
2018,06,16,11,06,20.80
2018,06,16,11,07,20.90
2018,06,16,11,08,20.90
2018,06,16,11,09,20.90
2018,06,16,11,10,20.90
2018,06,16,11,11,20.90
2018,06,16,11,12,21.00
2018,06,16,11,13,21.00
2018,06,16,11,14,21.10
2018,06,16,11,15,21.20
2018,06,16,11,16,21.20
2018,06,16,11,17,21.30
2018,06,16,11,18,21.30
2018,06,16,11,19,21.30
2018,06,16,11,20,21.30
2018,06,16,11,21,21.40
2018,06,16,11,22,21.40
2018,06,16,11,23,21.40
2018,06,16,11,24,21.40
2018,06,16,11,25,21.40
2018,06,16,11,26,21.50
2018,06,16,11,27,21.60
2018,06,16,11,28,21.60
2018,06,16,11,29,21.60
2018,06,16,11,30,21.60
2018,06,16,11,31,21.60
2018,06,16,11,32,21.60
2018,06,16,11,33,21.60
2018,06,16,11,34,21.60
2018,06,16,11,35,21.60
2018,06,16,11,36,21.60
2018,06,16,11,37,21.50
2018,06,16,11,38,21.40
2018,06,16,11,39,21.30
2018,06,16,11,40,21.30
2018,06,16,11,41,21.40
2018,06,16,11,42,21.40
2018,06,16,11,43,21.40
2018,06,16,11,44,21.50
2018,06,16,11,45,21.60
2018,06,16,11,46,21.60
2018,06,16,11,47,21.70
2018,06,16,11,48,21.70
2018,06,16,11,49,21.80
2018,06,16,11,50,21.80
2018,06,16,11,51,21.80
2018,06,16,11,52,21.90
2018,06,16,11,53,21.90
2018,06,16,11,54,22.00
2018,06,16,11,55,22.00
2018,06,16,11,56,22.10
2018,06,16,11,57,22.10
2018,06,16,11,58,22.10
2018,06,16,11,59,22.10
2018,06,16,12,00,22.10
2018,06,16,12,01,22.10
2018,06,16,12,02,22.10
2018,06,16,12,03,22.10
2018,06,16,12,04,22.20
2018,06,16,12,05,22.30
2018,06,16,12,06,22.30
2018,06,16,12,07,22.40
2018,06,16,12,08,22.30
2018,06,16,12,09,22.30
2018,06,16,12,10,22.20
2018,06,16,12,11,22.20
2018,06,16,12,12,22.20
2018,06,16,12,13,22.30
2018,06,16,12,14,22.40
2018,06,16,12,15,22.40
2018,06,16,12,16,22.40
2018,06,16,12,17,22.50
2018,06,16,12,18,22.50
2018,06,16,12,19,22.40
2018,06,16,12,20,22.40
2018,06,16,12,21,22.40
2018,06,16,12,22,22.50
2018,06,16,12,23,22.40
2018,06,16,12,24,22.40
2018,06,16,12,25,22.50
2018,06,16,12,26,22.50
2018,06,16,12,27,22.50
2018,06,16,12,28,22.60
2018,06,16,12,29,22.70
2018,06,16,12,30,22.70
2018,06,16,12,31,22.80
2018,06,16,12,32,22.80
2018,06,16,12,33,22.80
2018,06,16,12,34,22.90
2018,06,16,12,35,22.90
2018,06,16,12,36,22.90
2018,06,16,12,37,22.90
2018,06,16,12,38,22.90
2018,06,16,12,39,22.90
2018,06,16,12,40,23.10
2018,06,16,12,41,23.20
2018,06,16,12,42,23.30
2018,06,16,12,43,23.30
2018,06,16,12,44,23.30
2018,06,16,12,45,23.30
2018,06,16,12,46,23.30
2018,06,16,12,47,23.30
2018,06,16,12,48,23.10
2018,06,16,12,49,23.00
2018,06,16,12,50,22.90
2018,06,16,12,51,22.90
2018,06,16,12,52,22.80
2018,06,16,12,53,22.70
2018,06,16,12,54,22.60
2018,06,16,12,55,22.60
2018,06,16,12,56,22.60
2018,06,16,12,57,22.70
2018,06,16,12,58,22.70
2018,06,16,12,59,22.80
2018,06,16,13,00,22.80
2018,06,16,13,01,22.70
2018,06,16,13,02,22.70
2018,06,16,13,03,22.60
2018,06,16,13,04,22.60
2018,06,16,13,05,22.60
2018,06,16,13,06,22.60
2018,06,16,13,07,22.60
2018,06,16,13,08,22.70
2018,06,16,13,09,22.70
2018,06,16,13,10,22.70
2018,06,16,13,11,22.60
2018,06,16,13,12,22.40
2018,06,16,13,13,22.20
2018,06,16,13,14,22.10
2018,06,16,13,15,22.00
2018,06,16,13,16,21.90
2018,06,16,13,17,21.90
2018,06,16,13,18,21.90
2018,06,16,13,19,21.90
2018,06,16,13,20,22.00
2018,06,16,13,21,22.00
2018,06,16,13,22,22.20
2018,06,16,13,23,22.30
2018,06,16,13,24,22.40
2018,06,16,13,25,22.50
2018,06,16,13,26,22.60
2018,06,16,13,27,22.70
2018,06,16,13,28,22.80
2018,06,16,13,29,22.90
2018,06,16,13,30,22.90
2018,06,16,13,31,23.00
2018,06,16,13,32,23.10
2018,06,16,13,33,23.10
2018,06,16,13,34,23.10
2018,06,16,13,35,23.10
2018,06,16,13,36,23.20
2018,06,16,13,37,23.30
2018,06,16,13,38,23.30
2018,06,16,13,39,23.30
2018,06,16,13,40,23.30
2018,06,16,13,41,23.30
2018,06,16,13,42,23.30
2018,06,16,13,43,23.30
2018,06,16,13,44,23.30
2018,06,16,13,45,23.30
2018,06,16,13,46,23.30
2018,06,16,13,47,23.30
2018,06,16,13,48,23.30
2018,06,16,13,49,23.30
2018,06,16,13,50,23.30
2018,06,16,13,51,23.30
2018,06,16,13,52,23.30
2018,06,16,13,53,23.30
2018,06,16,13,54,23.30
2018,06,16,13,55,23.30
2018,06,16,13,56,23.20
2018,06,16,13,57,23.20
2018,06,16,13,58,23.30
2018,06,16,13,59,23.40
2018,06,16,14,00,23.50
2018,06,16,14,01,23.60
2018,06,16,14,02,23.70
2018,06,16,14,03,23.70
2018,06,16,14,04,23.80
2018,06,16,14,05,23.80
2018,06,16,14,06,23.70
2018,06,16,14,07,23.70
2018,06,16,14,08,23.70
2018,06,16,14,09,23.70
2018,06,16,14,10,23.70
2018,06,16,14,11,23.80
2018,06,16,14,12,23.80
2018,06,16,14,13,23.80
2018,06,16,14,14,23.90
2018,06,16,14,15,24.00
2018,06,16,14,16,24.10
2018,06,16,14,17,24.10
2018,06,16,14,18,24.10
2018,06,16,14,19,24.10
2018,06,16,14,20,24.10
2018,06,16,14,21,24.10
2018,06,16,14,22,24.30
2018,06,16,14,23,24.30
2018,06,16,14,24,24.40
2018,06,16,14,25,24.30
2018,06,16,14,26,24.30
2018,06,16,14,27,24.30
2018,06,16,14,28,24.30
2018,06,16,14,29,24.30
2018,06,16,14,30,24.30
2018,06,16,14,31,24.30
2018,06,16,14,32,24.40
2018,06,16,14,33,24.40
2018,06,16,14,34,24.40
2018,06,16,14,35,24.40
2018,06,16,14,36,24.40
2018,06,16,14,37,24.50
2018,06,16,14,38,24.50
2018,06,16,14,39,24.40
2018,06,16,14,40,24.40
2018,06,16,14,41,24.40
2018,06,16,14,42,24.40
2018,06,16,14,43,24.40
2018,06,16,14,44,24.40
2018,06,16,14,45,24.30
2018,06,16,14,46,24.30
2018,06,16,14,47,24.30
2018,06,16,14,48,24.20
2018,06,16,14,49,24.20
2018,06,16,14,50,24.20
2018,06,16,14,51,24.30
2018,06,16,14,52,24.30
2018,06,16,14,53,24.40
2018,06,16,14,54,24.50
2018,06,16,14,55,24.50
2018,06,16,14,56,24.50
2018,06,16,14,57,24.40
2018,06,16,14,58,24.30
2018,06,16,14,59,24.40
2018,06,16,15,00,24.40
2018,06,16,15,01,24.50
2018,06,16,15,02,24.50
2018,06,16,15,03,24.50
2018,06,16,15,04,24.50
2018,06,16,15,05,24.60
2018,06,16,15,06,24.60
2018,06,16,15,07,24.60
2018,06,16,15,08,24.60
2018,06,16,15,09,24.60
2018,06,16,15,10,24.60
2018,06,16,15,11,24.50
2018,06,16,15,12,24.20
2018,06,16,15,13,24.00
2018,06,16,15,14,23.80
2018,06,16,15,15,23.80
2018,06,16,15,16,23.90
2018,06,16,15,17,24.00
2018,06,16,15,18,24.20
2018,06,16,15,19,24.20
2018,06,16,15,20,24.30
2018,06,16,15,21,24.40
2018,06,16,15,22,24.50
2018,06,16,15,23,24.60
2018,06,16,15,24,24.80
2018,06,16,15,25,24.80
2018,06,16,15,26,24.70
2018,06,16,15,27,24.70
2018,06,16,15,28,24.60
2018,06,16,15,29,24.50
2018,06,16,15,30,24.40
2018,06,16,15,31,24.40
2018,06,16,15,32,24.30
2018,06,16,15,33,24.40
2018,06,16,15,34,24.40
2018,06,16,15,35,24.50
2018,06,16,15,36,24.60
2018,06,16,15,37,24.60
2018,06,16,15,38,24.60
2018,06,16,15,39,24.60
2018,06,16,15,40,24.60
2018,06,16,15,41,24.70
2018,06,16,15,42,24.70
2018,06,16,15,43,24.80
2018,06,16,15,44,24.90
2018,06,16,15,45,25.00
2018,06,16,15,46,25.10
2018,06,16,15,47,25.20
2018,06,16,15,48,25.20
2018,06,16,15,49,25.10
2018,06,16,15,50,25.20
2018,06,16,15,51,25.20
2018,06,16,15,52,25.30
2018,06,16,15,53,25.30
2018,06,16,15,54,25.30
2018,06,16,15,55,25.30
2018,06,16,15,56,25.40
2018,06,16,15,57,25.40
2018,06,16,15,58,25.50
2018,06,16,15,59,25.50
2018,06,16,16,00,25.50
2018,06,16,16,01,25.50
2018,06,16,16,02,25.60
2018,06,16,16,03,25.60
2018,06,16,16,04,25.70
2018,06,16,16,05,25.60
2018,06,16,16,06,25.60
2018,06,16,16,07,25.70
2018,06,16,16,08,25.70
2018,06,16,16,09,25.70
2018,06,16,16,10,25.70
2018,06,16,16,11,25.60
2018,06,16,16,12,25.50
2018,06,16,16,13,25.50
2018,06,16,16,14,25.50
2018,06,16,16,15,25.40
2018,06,16,16,16,25.40
2018,06,16,16,17,25.50
2018,06,16,16,18,25.50
2018,06,16,16,19,25.50
2018,06,16,16,20,25.50
2018,06,16,16,21,25.40
2018,06,16,16,22,25.40
2018,06,16,16,23,25.40
2018,06,16,16,24,25.40
2018,06,16,16,25,25.30
2018,06,16,16,26,25.30
2018,06,16,16,27,25.30
2018,06,16,16,28,25.20
2018,06,16,16,29,25.10
2018,06,16,16,30,25.10
2018,06,16,16,31,25.10
2018,06,16,16,32,25.10
2018,06,16,16,33,25.10
2018,06,16,16,34,25.10
2018,06,16,16,35,25.10
2018,06,16,16,36,25.10
2018,06,16,16,37,25.00
2018,06,16,16,38,25.10
2018,06,16,16,39,25.10
2018,06,16,16,40,25.10
2018,06,16,16,41,25.10
2018,06,16,16,42,25.10
2018,06,16,16,43,25.00
2018,06,16,16,44,24.90
2018,06,16,16,45,24.90
2018,06,16,16,46,24.80
2018,06,16,16,47,24.70
2018,06,16,16,48,24.60
2018,06,16,16,49,24.60
2018,06,16,16,50,24.50
2018,06,16,16,51,24.50
2018,06,16,16,52,24.60
2018,06,16,16,53,24.70
2018,06,16,16,54,24.70
2018,06,16,16,55,24.80
2018,06,16,16,56,24.90
2018,06,16,16,57,25.00
2018,06,16,16,58,25.10
2018,06,16,16,59,25.20
2018,06,16,17,00,25.20
2018,06,16,17,01,25.10
2018,06,16,17,02,25.00
2018,06,16,17,03,24.90
2018,06,16,17,04,24.90
2018,06,16,17,05,24.90
2018,06,16,17,06,24.90
2018,06,16,17,07,24.90
2018,06,16,17,08,25.00
2018,06,16,17,09,25.00
2018,06,16,17,10,24.90
2018,06,16,17,11,24.80
2018,06,16,17,12,24.70
2018,06,16,17,13,24.70
2018,06,16,17,14,24.70
2018,06,16,17,15,24.80
2018,06,16,17,16,24.80
2018,06,16,17,17,24.80
2018,06,16,17,18,24.90
2018,06,16,17,19,24.90